This is the latest recevied weather packets stored in our database for station/object AF9W-5. If no packets are shown the sender has not sent any weather packets the latest 10 day(s).
| Time | Temp. | Humidity | Pressure | Rain* | Wind** | Luminosity | Snow |
|---|---|---|---|---|---|---|---|
| 1777834989 | 27.78° C | 26% | 1012.5 hPa | 0 mm | - | 307 W/m² | - |
| 1777834686 | 27.78° C | 27% | 1012.8 hPa | 0 mm | - | 335 W/m² | - |
| 1777833778 | 27.78° C | 28% | 1013 hPa | 0 mm | - | 357 W/m² | - |
| 1777833474 | 27.78° C | 28% | 1012.9 hPa | 0 mm | - | 320 W/m² | - |
| 1777833172 | 27.78° C | 28% | 1013.3 hPa | 0 mm | - | 337 W/m² | - |
| 1777832869 | 27.78° C | 28% | 1013.1 hPa | 0 mm | - | 373 W/m² | - |
| 1777832568 | 27.78° C | 29% | 1013.3 hPa | 0 mm | - | 354 W/m² | - |
| 1777831658 | 27.78° C | 29% | 1013.1 hPa | 0 mm | - | 321 W/m² | - |
| 1777831356 | 27.22° C | 30% | 1013.3 hPa | 0 mm | - | 354 W/m² | - |
| 1777829238 | 27.78° C | 30% | 1013.7 hPa | 0 mm | - | 382 W/m² | - |
| 1777828935 | 27.22° C | 31% | 1013.9 hPa | 0 mm | - | 263 W/m² | - |
| 1777828329 | 26.11° C | 32% | 1013.9 hPa | 0 mm | - | 228 W/m² | - |
| 1777827419 | 27.22° C | 31% | 1013.9 hPa | 0 mm | - | 332 W/m² | - |
| 1777827116 | 26.67° C | 31% | 1014 hPa | 0 mm | - | 383 W/m² | - |
| 1777825904 | 27.22° C | 31% | 1014.2 hPa | 0 mm | - | 400 W/m² | - |
| 1777825601 | 27.22° C | 32% | 1014 hPa | 0 mm | - | 498 W/m² | - |
| 1777825299 | 27.22° C | 31% | 1014.1 hPa | 0 mm | - | 588 W/m² | - |
| 1777824691 | 27.22° C | 31% | 1014 hPa | 0 mm | - | 492 W/m² | - |
| 1777824389 | 26.67° C | 32% | 1014 hPa | 0 mm | - | 494 W/m² | - |
| 1777824084 | 26.11° C | 32% | 1014.2 hPa | 0 mm | - | 480 W/m² | - |
| 1777823781 | 26.11° C | 32% | 1014.3 hPa | 0 mm | - | 371 W/m² | - |
| 1777822571 | 25.56° C | 34% | 1013.9 hPa | 0 mm | - | 326 W/m² | - |
| 1777822268 | 25.56° C | 34% | 1014.1 hPa | 0 mm | - | 338 W/m² | - |
| 1777821663 | 23.89° C | 36% | 1014 hPa | 0 mm | - | 255 W/m² | - |
| 1777821361 | 23.89° C | 37% | 1014.3 hPa | 0 mm | - | 192 W/m² | - |
* Rain latest hour (hover to see other rain measurements)
** Current wind speed in m/s (hover to see current wind gust speed)